Flag for United Arab Emirates Weather past 2 weeks in Umm al-Quwain, Umm al-Quwain, United Arab Emirates

Now
91 °F

Sunny.


Feels Like: 92 °F
Forecast: 74 / 82 °F
Wind: 10 mph from Northwest

Location: Sharjah International Airport

Current Time: Apr 1, 2015 at 1:46:00 PM

Latest Report: Apr 1, 2015 at 1:00 PM


Visibility: 10 mi

Pressure: 29.71 "Hg

Humidity: 38%

Dew point: 63 °F

Location of Umm al-QuwainLocation

Historic Weather in Umm al-Quwain — Graph

°F

Umm al-Quwain temperature yesterday

Maximum temperature yesterday: 99 °F (at 1:00 PM)
Minimum temperature yesterday: 66 °F (at 5:00 AM)
Average temperature yesterday: 81 °F

Past Weeks' High & Low Weather Summary

 TemperatureHumidityPressure
High99 °F (Mar 31, 1:00 PM)94% (Mar 24, 7:00 AM)30.07 "Hg (Mar 24, 7:00 AM)
Low61 °F (Mar 29, 5:00 AM)7% (Mar 31, 1:00 PM)29.71 "Hg (Apr 1, 1:00 PM)
Average78 °F52%29.93 "Hg
* Reported Mar 17 1:00 PM — Apr 1 1:00 PM, Umm al-Quwain, Weather by CustomWeather, © 2015

Note: Actual official high and low records may vary slightly from our data, if they occured in-between our weather recording intervals... More about our weather records

Advertising

Umm al-Quwain weather history for previous 24 hours

 ConditionsComfort  
Time TempWeatherWind HumidityBarometerVisibility
1:00 PM
Wed, Apr 1
91 °FSunny.10 mph38%29.71 "Hg10 mi
12:00 PM93 °FSunny.9 mph26%29.74 "Hg10 mi
11:00 AM91 °FSunny.10 mph30%29.77 "Hg10 mi
10:00 AM88 °FSunny.7 mph35%29.77 "Hg10 mi
9:00 AM82 °FSunny.9 mph45%29.77 "Hg10 mi
8:00 AM79 °FSunny.9 mph42%29.80 "Hg10 mi
7:00 AM75 °FSunny.6 mph41%29.77 "Hg10 mi
6:00 AM72 °FClear.5 mph47%29.74 "Hg10 mi
5:00 AM79 °FClear.5 mph54%29.74 "Hg10 mi
4:00 AM81 °FClear.1 mph37%29.74 "Hg10 mi
3:00 AM75 °FClear.1 mph44%29.74 "Hg10 mi
2:00 AM79 °FClear.7 mph30%29.74 "Hg10 mi
1:00 AM82 °FClear.2 mph25%29.74 "Hg10 mi
12:00 AM82 °FClear.3 mph25%29.77 "Hg10 mi
11:00 PM
Tue, Mar 31
84 °FClear.2 mph22%29.77 "Hg10 mi
10:00 PM86 °FClear.12 mph24%29.77 "Hg10 mi
9:00 PM84 °FClear.12 mph23%29.77 "Hg10 mi
8:00 PM82 °FClear.7 mph32%29.77 "Hg10 mi
7:00 PM84 °FClear.5 mph25%29.80 "Hg10 mi
6:00 PM86 °FSunny.7 mph27%29.77 "Hg10 mi
5:00 PM86 °FSunny.13 mph27%29.77 "Hg10 mi
4:00 PM90 °FSunny.16 mph27%29.77 "Hg10 mi
3:00 PM91 °FSunny.13 mph30%29.77 "Hg10 mi
2:00 PM97 °FSunny.14 mph19%29.77 "Hg10 mi
1:00 PM99 °FPassing clouds.12 mph7%29.80 "HgN/A
Weather by CustomWeather, © 2015

See weather overviewHow to use our weather pages